Regional Weather Roundup
Issued by NWS New Orleans/Baton Rouge, LA

Home | Current Version | Previous Version | Text Only | Print | Product List | Glossary On
Versions: 1 2 3 4 5 6 7 8 9 10 11 12 13 14 15 16 17 18 19 20 21 22 23 24 25 26 27 28 29 30 31 32 33 34 35 36 37 38 39 40 41 42 43 44 45 46 47 48 49 50
000
ASUS44 KLIX 012011
RWRLIX
NEW ORLEANS REGIONAL WEATHER ROUNDUP
NATIONAL WEATHER SERVICE NEW ORLEANS LA
300 PM CDT SUN MAY 01 2016

NOTE: "FAIR" INDICATES FEW OR NO CLOUDS BELOW 12,000 FEET WITH NO
      SIGNIFICANT WEATHER AND/OR OBSTRUCTIONS TO VISIBILITY.
      SKY/WX - SKY CONDITION AND SIGNIFICANT WEATHER.
      TMP - AIR TEMPERATURE.     DP    - DEWPOINT TEMPERATURE.
      RH  - RELATIVE HUMIDITY.   PRES  - PRESSURE.
      HI  - HEAT INDEX.          WCI   - WIND CHILL INDEX.

*  THESE STATIONS ARE NOT NWS OR FAA STATIONS AND ARE NOT UNDER
   NWS QUALITY CONTROL.

LAZ038-040-048-061>063-065>067-069-012100-
SOUTHEAST LOUISIANA

CITY           SKY/WX    TMP DP  RH WIND       PRES   REMARKS
N.O. AUDUBON     N/A     69  69 100 MISG        N/A
N.O. INTL ARPT TSTM      71  68  90 SE8       29.99S FOG
N.O. LAKEFRONT LGT RAIN  66  32  28 SE9       29.99F
N.O. DOWNTOWN* CLOUDY    70  68  93 CALM      30.00F
RESERVE*       TSTM      72  67  86 SE25G31   29.91F
SLIDELL        TSTM      70  70 100 S13       29.96F
BATON ROUGE    CLOUDY    71  66  84 MISG      29.90S
BOOTHVILLE     CLOUDY    74  72  93 NE7       29.98S FOG
BELLE CHASSE   TSTM      69  68  96 E7        30.00R FOG
BOGALUSA*      MOCLDY    72  67  84 SE15G23   29.90F
GALLIANO*      TSTM      67  66  95 N5        29.99S
NEW ROADS*       N/A     71  65  81 CALM      29.90R
GONZALES*      RAIN      71  68  91 S9        29.93R
HAMMOND*       DRIZZLE   70  68  94 SE18G28   29.87F
HOUMA*         LGT RAIN  68  68 100 NE12      29.98F
PORT FOURCHON* CLOUDY    72  70  94 N18G26    29.96S FOG

$$

MSZ070-080>082-012100-
SOUTHERN MISSISSIPPI

CITY           SKY/WX    TMP DP  RH WIND       PRES   REMARKS
MCCOMB         CLOUDY    75  69  81 SE9       29.92F
GULFPORT       RAIN      70  67  90 E8        30.00F FOG
BILOXI         TSTM      70  70 100 VRB6      30.02S FOG
PASCAGOULA     LGT RAIN  75  74  96 CALM      30.02R
STENNIS ARPT*  CLOUDY    70  63  78 SE8       30.00F

$$

COASTAL OBSERVATIONS
LAKE AND NEARSHORE STATIONS

STATION/POSITION TIME  TEMP    WIND        PRES    WAVE
                       AIR SEA DIR/SP/G            HT/PER
                 (UTC) (F)     (DEG/KT/KT) (MB)    (FT/S)
PASCAGOULA       1900   77     170/  3/  4 1015.6
WAVELAND YACHT   1900   69 74  220/  3/  4 1016.3
GRAND ISLE       1900   76 76  100/  7/ 12 1014.0
SOUTHWEST PASS   1900          120/  9/ 14   N/A
NEW CANAL        1900   70 73  130/  1/  5 1014.9
SHELL BEACH      1900   71 75  330/ 12/ 16 1016.4

OFFSHORE STATIONS

STATION/POSITION TIME  TEMP    WIND        PRES    WAVE
                       AIR SEA DIR/SP/G            HT/PER
                 (UTC) (F)     (DEG/KT/KT) (MB)    (FT/S)
64 S DAUPHIN ISL 1900   77 76  140/  8/ 10 1014.8

$$




USA.gov is the U.S. government's official web portal to all federal, state and local government web resources and services.